| time (UTC) | temp F | wind direction | speed knots | gust knots | rain 1hr in | rain 24hr in | rain mn in | humidity % | barometer mb |
| 20260509031001 | 42 | 110 | 7.0 | 0.0 | 0.00 | 0.00 | 0.00 | 90 | 1022.0 |
| 20260509021002 | 42 | 110 | 7.0 | 0.0 | 0.00 | 0.00 | 0.00 | 90 | 1022.0 |
| 20260509011001 | 44 | 100 | 7.8 | 0.0 | 0.00 | 0.00 | 0.00 | 90 | 1022.0 |
| 20260508211002 | 50 | 110 | 8.7 | 0.0 | 0.00 | 0.00 | 0.00 | 65 | 1022.0 |
| 20260508201001 | 53 | 100 | 12.2 | 0.0 | 0.00 | 0.00 | 0.00 | 45 | 1022.0 |
| 20260508191001 | 53 | 100 | 12.2 | 0.0 | 0.00 | 0.00 | 0.00 | 45 | 1022.0 |
| 20260508181002 | 55 | 100 | 13.0 | 0.0 | 0.00 | 0.00 | 0.00 | 35 | 1021.0 |
| 20260508171001 | 59 | 100 | 13.9 | 0.0 | 0.00 | 0.00 | 0.00 | 25 | 1021.0 |
| 20260508161001 | 57 | 0 | 0.0 | 0.0 | 0.00 | 0.00 | 0.00 | 60 | 1021.0 |
| 20260508151002 | 57 | 340 | 9.6 | 0.0 | 0.00 | 0.00 | 0.00 | 50 | 1021.0 |
| 20260508141001 | 57 | 320 | 7.8 | 0.0 | 0.00 | 0.00 | 0.00 | 60 | 1021.0 |
| 20260508131002 | 55 | 320 | 7.8 | 0.0 | 0.00 | 0.00 | 0.00 | 60 | 1021.0 |
| 20260508121002 | 59 | 240 | 5.2 | 0.0 | 0.00 | 0.00 | 0.00 | 50 | 1021.0 |
| 20260508111002 | 59 | 190 | 5.2 | 0.0 | 0.00 | 0.00 | 0.00 | 45 | 1022.0 |
| 20260508101002 | 57 | 180 | 7.8 | 0.0 | 0.00 | 0.00 | 0.00 | 50 | 1022.0 |
| 20260508091002 | 57 | 170 | 8.7 | 0.0 | 0.00 | 0.00 | 0.00 | 45 | 1022.0 |
| 20260508081001 | 57 | 130 | 8.7 | 0.0 | 0.00 | 0.00 | 0.00 | 50 | 1021.0 |
| 20260508071001 | 55 | 140 | 8.7 | 0.0 | 0.00 | 0.00 | 0.00 | 60 | 1021.0 |
| 20260508061002 | 51 | 130 | 8.7 | 0.0 | 0.00 | 0.00 | 0.00 | 65 | 1020.0 |
| 20260508041002 | 44 | 110 | 7.0 | 0.0 | 0.00 | 0.00 | 0.00 | 85 | 1020.0 |